Tracking 25686 objects as of 25-May-2022
HD Live streaming from Space Station
objects crossing your sky now

KALAMSAT-V2/PSLV

Track KALAMSAT-V2/PSLV now!
10-day predictions
KALAMSAT-V2/PSLV is classified as:


NORAD ID: 43948
Int'l Code: 2019-006B
Perigee: 433.1 km
Apogee: 437.6 km
Inclination: 98.8 °
Period: 93.1 minutes
Semi major axis: 6806 km
RCS: Unknown
Launch date: January 24, 2019
Source: India (IND)
Launch site: SRIHARIKOTA (SRI)

Uplink (MHz):
Downlink (MHz): 436.500
Beacon (MHz):
Mode:
Call sign:
Status: Unknown

aabbcc
Your satellite tracking list
Your tracking list is empty




NASA's NSSDC Master Catalog

Two Line Element Set (TLE):
1 43948U 19006B   22145.06280456  .00014208  00000-0  29269-3 0  9995
2 43948  98.8287 324.2007 0003353 357.1464   2.9761 15.46076279187305
Source of the keplerian elements: AFSPC